CZ-3C DEB

Satellite information

Favourite Embed

Satellite Type and Status

DEBRISIN ORBIT

Key statistics

Satellite CZ-3C DEB at a glance.

Uptime

5364

Days in orbit

Revolutions

≈ 2.2

Per day

Orbit

GTO

Geostationary Transfer Orbit

Inclination

19.6

Latest

Satellite identification and parameters

Extended collection of information and parameters for CZ-3C DEB.

Object identification

Identified? True

Debris? True

Object name: CZ-3C DEB

International designator: 2010-057Q

Object number (NORAD): 39350

Object ID (CCSDS): 39350

Country: PEOPLES REPUBLIC OF CHINA (PRC)

Current information (Y/N): Y

RCS size: MEDIUM

Orbital parameters

Period: 646.318 minutes

Inclination: 19.5954 deg

SMA: 24762.312 km

Apoapsis: 36208.188 km

Periapsis: 560.166 km

RAAN: 168.7536 deg

Eccentricy: 0.719804

Argument of periapsis: 42.8198 deg

Mean anomaly: 0.658 deg

Mean motion: 2.22800403 rev/day

Mean motion (dot): 0.00000082 rev/day2

B* drag term: 0.00029609 1/REarth

Two-line elements (TLE)

Creation date: July 7, 2025, 6:34 p.m.

Reference frame: TEME

Reference center: EARTH

Epoch: July 7, 2025, 12:46 a.m. UTC

TLE line 0: 0 CZ-3C DEB

TLE line 1: 1 39350U 10057Q 25188.03214131 .00000082 00000-0 29609-3 0 9991

TLE line 2: 2 39350 19.5954 168.7536 7198040 42.8198 0.6580 2.22800403 92272

Live tracking on map

Real-time ground track for satellite CZ-3C DEB.

In-orbit conjunctions

A list of the most updated potential collisions computed for object CZ-3C DEB.

Target Orbit TCA Probability of collision Miss distance Type
COSMOS 2022 (GLONASS) MEO 2024-08-29 00:08:44 TBA 4201.0 (m) PAYLOAD

Associated space launch

CZ-3C DEB was lifted into orbit during the mission ‘Long March 3C | Compass-G4’, on board a Long March 3 space rocket.

The launch took place on Oct. 31, 2010, 4:26 p.m. from Launch Complex 2 (LC-2).

For more information about the launch, click the button.

Launch to space Long March 3C | Compass-G4
Long March 3C | Compass-G4

Agency: N/A

Status: Launch Successful

Launch date: Oct. 31, 2010, 4:26 p.m. UTC

Rocket: Long March 3

Launch pad: Launch Complex 2 (LC-2)

Location: Xichang Satellite Launch Center, People's Republic of China

...

Latest news about this satellite

There are no fresh news available about this satellite. Check back as we update our databases every day.


Newsletter sign-up

Weekly statistics, charts and insights to help you stay on top of the space industry.